STARLINK-6115 (56123 NORAD) Tracking and Keplerian Element Data

This shows tracking and keplerian element data for the satellite.

Feedback or suggestion? Click here.




ElementValue
Catalog56123
NameSTARLINK-6115
Epoch Orbit656
Epoch Day127.25001157
Epoch Year2023
RAAN33.7037
Inclination43.0017
Eccentricity0.0001525
Argument of Perigee263.7461
Mean Anonmoly351.3996
Mean Motion15.48882105
Decay Rate0.00071151
L11 56123U 23046AH 23127.25001157 .00071151 00000+0 12822-2 0 9999
L22 56123 43.0017 33.7037 0001525 263.7461 351.3996 15.48882105 6564



Live tracking and technical data element details for STARLINK-6115 (NORAD 56123). STARLINK-6115 can be tracked NOW for your location showing map with azimuth and elevation plus other details from your city location.







IsCatalogInMostPopularTable: catalog: 56123, numindb: 6
Update: records affected: 1



GetName: 56123 STARLINK-6115

Hit Count: updated at: Mon, 05 Jun 2023 00:22:03 GMT